Location: Natural Bridges National Monument
(37.6093°N, 109.9767°W)
Time: 17:47:00
(UTC-07:00)

USA 32 - Visible Passes

Search period start: 22 February 2018 00:00
Search period end: 04 March 2018 00:00
Orbit: 775 x 785 km, 85.0° (Epoch: 21 February)

Date Brightness Start Highest point End Pass type
(mag) Time Alt. Az. Time Alt. Az. Time Alt. Az.
22 Feb 4.9 19:49:25 10° SSW 19:54:29 50° W 19:59:35 10° N visible
23 Feb 5.3 06:21:28 10° N 06:26:30 47° E 06:31:30 10° SSE visible
23 Feb 4.0 19:16:25 10° S 19:21:38 88° E 19:26:53 10° N visible
24 Feb 6.4 05:49:11 10° NNE 05:53:31 26° ENE 05:57:51 10° SE visible
24 Feb 4.2 18:43:55 10° SSE 18:48:54 47° E 18:53:54 10° NNE visible
24 Feb 6.8 20:26:39 10° WSW 20:30:06 18° WNW 20:33:33 10° NNW visible
25 Feb 7.1 05:17:37 10° NE 05:20:25 14° ENE 05:23:13 10° ESE visible
25 Feb 5.9 19:52:26 10° SW 19:57:02 31° W 20:01:40 10° NNW visible
26 Feb 4.3 06:23:45 10° N 06:28:59 77° E 06:34:12 10° S visible
26 Feb 4.7 19:18:59 10° SSW 19:24:06 57° W 19:29:15 10° N visible
27 Feb 5.5 05:51:10 10° N 05:56:06 41° E 06:01:01 10° SSE visible
27 Feb 4.0 18:46:04 10° S 18:51:16 78° E 18:56:30 10° N visible
27 Feb 7.4 20:31:46 10° W 20:32:49 11° WNW 20:33:54 10° WNW visible
28 Feb 6.5 05:18:58 10° NNE 05:23:06 23° ENE 05:27:12 10° SE visible
28 Feb 6.7 19:55:55 10° WSW 19:59:39 20° WNW 20:03:26 10° NNW visible
01 Mar 7.2 04:47:42 10° NE 04:49:58 13° ENE 04:52:14 10° E visible
01 Mar 5.8 19:21:53 10° SW 19:26:38 35° W 19:31:24 10° NNW visible
02 Mar 4.5 05:53:23 10° N 05:58:37 68° E 06:03:48 10° SSE visible
02 Mar 4.6 18:48:33 10° SSW 18:53:42 65° W 18:58:54 10° N visible
03 Mar 5.7 05:20:52 10° NNE 05:25:42 36° E 05:30:30 10° SSE visible
03 Mar 7.3 20:00:20 10° W 20:02:22 12° WNW 20:04:24 10° NW visible
